{"data":{"norad_id":67162,"epoch":"2026-09-19T01:56:31.727328Z","epoch_age_seconds":136921,"freshness":"FRESH","line1":"1 67162U 25302C   26262.08092277  .00000017  00000+0  00000+0 0  9993","line2":"2 67162  54.3983  99.4534 0000329  62.8198 298.7279  1.70474430  4781","mean_motion":1.7047443,"eccentricity":3.29e-5,"inclination_deg":54.3983,"raan_deg":99.4534,"arg_perigee_deg":62.8198,"mean_anomaly_deg":298.7279,"bstar":0,"rev_number":478,"period_min":844.70146050642,"perigee_km":23221.159433298,"apogee_km":23223.107131082,"semimajor_km":29600.27028219,"source":"CELESTRAK","updated_at":"2026-09-20T09:00:46.500049Z"}}